| time (UTC) | temp F | wind direction | speed MPH | gust MPH | rain 1hr in | rain 24hr in | rain mn in | humidity % | barometer mb |
| 20260508175010 | 79 | 13 | 4.0 | 10.0 | 0.00 | 0.00 | 0.00 | 64 | 1016.1 |
| 20260508174514 | 80 | 43 | 3.0 | 8.0 | 0.00 | 0.00 | 0.00 | 63 | 1016.1 |
| 20260508174005 | 80 | 145 | 2.0 | 7.0 | 0.00 | 0.00 | 0.00 | 63 | 1016.0 |
| 20260508173505 | 80 | 89 | 3.0 | 7.0 | 0.00 | 0.00 | 0.00 | 62 | 1015.9 |
| 20260508172508 | 80 | 15 | 5.0 | 8.0 | 0.00 | 0.00 | 0.00 | 63 | 1016.1 |
| 20260508172008 | 80 | 37 | 1.0 | 4.0 | 0.00 | 0.00 | 0.00 | 62 | 1016.3 |
| 20260508171528 | 80 | 160 | 2.0 | 6.0 | 0.00 | 0.00 | 0.00 | 63 | 1016.3 |
| 20260508171009 | 80 | 75 | 3.0 | 6.0 | 0.00 | 0.00 | 0.00 | 63 | 1016.2 |
| 20260508170509 | 80 | 86 | 3.0 | 6.0 | 0.00 | 0.00 | 0.00 | 63 | 1016.2 |
| 20260508170022 | 79 | 100 | 2.0 | 5.0 | 0.00 | 0.00 | 0.00 | 64 | 1016.2 |
| 20260508165507 | 79 | 110 | 2.0 | 8.0 | 0.00 | 0.00 | 0.00 | 62 | 1016.3 |
| 20260508164006 | 81 | 125 | 2.0 | 8.0 | 0.00 | 0.00 | 0.00 | 62 | 1016.4 |
| 20260508163502 | 80 | 192 | 3.0 | 6.0 | 0.00 | 0.00 | 0.00 | 61 | 1016.5 |
| 20260508162502 | 79 | 356 | 1.0 | 5.0 | 0.00 | 0.00 | 0.00 | 62 | 1016.6 |
| 20260508162006 | 78 | 143 | 2.0 | 6.0 | 0.00 | 0.00 | 0.00 | 62 | 1016.6 |
| 20260508161509 | 78 | 186 | 3.0 | 7.0 | 0.00 | 0.00 | 0.00 | 63 | 1016.7 |
| 20260508161003 | 78 | 94 | 5.0 | 7.0 | 0.00 | 0.00 | 0.00 | 63 | 1016.9 |
| 20260508160503 | 78 | 63 | 3.0 | 5.0 | 0.00 | 0.00 | 0.00 | 63 | 1016.9 |
| 20260508160003 | 77 | 1 | 2.0 | 6.0 | 0.00 | 0.00 | 0.00 | 64 | 1017.0 |
| 20260508155504 | 76 | 65 | 3.0 | 8.0 | 0.00 | 0.00 | 0.00 | 64 | 1017.1 |
| 20260508154531 | 76 | 360 | 4.0 | 8.0 | 0.00 | 0.00 | 0.00 | 64 | 1017.4 |
| 20260508154004 | 76 | 60 | 4.0 | 9.0 | 0.00 | 0.00 | 0.00 | 65 | 1017.3 |
| 20260508153504 | 76 | 39 | 5.0 | 9.0 | 0.00 | 0.00 | 0.00 | 64 | 1017.3 |
| 20260508153012 | 75 | 48 | 4.0 | 8.0 | 0.00 | 0.00 | 0.00 | 65 | 1017.3 |
| 20260508152509 | 75 | 30 | 4.0 | 6.0 | 0.00 | 0.00 | 0.00 | 66 | 1017.4 |
| 20260508152002 | 75 | 47 | 2.0 | 7.0 | 0.00 | 0.00 | 0.00 | 66 | 1017.3 |
| 20260508151508 | 74 | 39 | 4.0 | 6.0 | 0.00 | 0.00 | 0.00 | 67 | 1017.2 |
| 20260508151003 | 74 | 359 | 4.0 | 7.0 | 0.00 | 0.00 | 0.00 | 66 | 1017.4 |
| 20260508150504 | 74 | 41 | 3.0 | 7.0 | 0.00 | 0.00 | 0.00 | 68 | 1017.4 |
| 20260508150028 | 73 | 23 | 3.0 | 6.0 | 0.00 | 0.00 | 0.00 | 68 | 1017.3 |
| 20260508145504 | 73 | 6 | 3.0 | 6.0 | 0.00 | 0.00 | 0.00 | 67 | 1017.2 |
| 20260508145003 | 73 | 54 | 5.0 | 6.0 | 0.00 | 0.00 | 0.00 | 67 | 1017.3 |
| 20260508144509 | 73 | 27 | 2.0 | 7.0 | 0.00 | 0.00 | 0.00 | 67 | 1017.3 |
| 20260508144006 | 73 | 49 | 4.0 | 7.0 | 0.00 | 0.00 | 0.00 | 66 | 1017.2 |
| 20260508143010 | 73 | 355 | 3.0 | 6.0 | 0.00 | 0.00 | 0.00 | 68 | 1017.3 |
| 20260508142507 | 73 | 37 | 3.0 | 6.0 | 0.00 | 0.00 | 0.00 | 69 | 1017.1 |
| 20260508142009 | 72 | 45 | 2.0 | 6.0 | 0.00 | 0.00 | 0.00 | 70 | 1017.2 |
| 20260508141523 | 72 | 65 | 3.0 | 6.0 | 0.00 | 0.00 | 0.00 | 71 | 1017.1 |
| 20260508141003 | 72 | 60 | 3.0 | 6.0 | 0.00 | 0.00 | 0.00 | 71 | 1017.1 |
| 20260508140503 | 72 | 58 | 3.0 | 8.0 | 0.00 | 0.00 | 0.00 | 71 | 1017.2 |
| 20260508140005 | 72 | 46 | 5.0 | 8.0 | 0.00 | 0.00 | 0.00 | 71 | 1017.2 |
| 20260508135501 | 72 | 29 | 4.0 | 7.0 | 0.00 | 0.00 | 0.00 | 71 | 1017.1 |
| 20260508135012 | 72 | 41 | 5.0 | 7.0 | 0.00 | 0.00 | 0.00 | 71 | 1017.1 |
| 20260508134525 | 72 | 30 | 4.0 | 6.0 | 0.00 | 0.00 | 0.00 | 73 | 1017.0 |
| 20260508134004 | 71 | 65 | 1.0 | 7.0 | 0.00 | 0.00 | 0.00 | 75 | 1017.0 |
| 20260508133504 | 71 | 67 | 4.0 | 7.0 | 0.00 | 0.00 | 0.00 | 75 | 1017.0 |
| 20260508132009 | 71 | 33 | 1.0 | 3.0 | 0.00 | 0.00 | 0.00 | 80 | 1016.8 |
| 20260508131008 | 71 | 91 | 2.0 | 6.0 | 0.00 | 0.00 | 0.00 | 80 | 1016.6 |
| 20260508130508 | 70 | 16 | 3.0 | 4.0 | 0.00 | 0.00 | 0.00 | 81 | 1016.6 |
| 20260508130025 | 70 | 18 | 2.0 | 4.0 | 0.00 | 0.00 | 0.00 | 81 | 1016.7 |
| 20260508125504 | 70 | 13 | 2.0 | 4.0 | 0.00 | 0.00 | 0.00 | 80 | 1016.6 |
| 20260508125004 | 70 | 23 | 2.0 | 4.0 | 0.00 | 0.00 | 0.00 | 81 | 1016.8 |
| 20260508124507 | 70 | 25 | 3.0 | 4.0 | 0.00 | 0.00 | 0.00 | 80 | 1016.8 |
| 20260508124004 | 70 | 359 | 2.0 | 8.0 | 0.00 | 0.00 | 0.00 | 80 | 1017.0 |
| 20260508123506 | 70 | 359 | 3.0 | 8.0 | 0.00 | 0.00 | 0.00 | 80 | 1017.0 |
| 20260508123025 | 70 | 27 | 4.0 | 5.0 | 0.00 | 0.00 | 0.00 | 80 | 1016.8 |
| 20260508122504 | 70 | 20 | 3.0 | 6.0 | 0.00 | 0.00 | 0.00 | 80 | 1016.6 |
| 20260508122006 | 70 | 56 | 3.0 | 6.0 | 0.00 | 0.00 | 0.00 | 80 | 1016.5 |
| 20260508120506 | 70 | 1 | 4.0 | 8.0 | 0.00 | 0.00 | 0.00 | 80 | 1016.6 |
| 20260508120021 | 70 | 351 | 5.0 | 9.0 | 0.00 | 0.00 | 0.00 | 81 | 1016.5 |
| 20260508115511 | 70 | 16 | 4.0 | 9.0 | 0.00 | 0.00 | 0.00 | 81 | 1016.3 |
| 20260508115008 | 70 | 30 | 5.0 | 8.0 | 0.00 | 0.00 | 0.00 | 81 | 1016.3 |
| 20260508114504 | 70 | 55 | 4.0 | 8.0 | 0.00 | 0.00 | 0.00 | 82 | 1016.2 |
| 20260508114005 | 70 | 56 | 4.0 | 8.0 | 0.00 | 0.00 | 0.00 | 82 | 1016.1 |
| 20260508113504 | 71 | 4 | 4.0 | 10.0 | 0.00 | 0.00 | 0.00 | 82 | 1015.9 |
| 20260508113008 | 71 | 360 | 7.0 | 10.0 | 0.00 | 0.00 | 0.00 | 82 | 1015.8 |
| 20260508112504 | 71 | 1 | 3.0 | 9.0 | 0.00 | 0.00 | 0.00 | 83 | 1015.6 |
| 20260508112006 | 71 | 1 | 6.0 | 9.0 | 0.00 | 0.00 | 0.00 | 83 | 1015.7 |
| 20260508111005 | 71 | 359 | 7.0 | 10.0 | 0.00 | 0.00 | 0.00 | 85 | 1015.5 |
| 20260508110507 | 72 | 359 | 6.0 | 10.0 | 0.00 | 0.00 | 0.00 | 88 | 1015.3 |
| 20260508110018 | 72 | 1 | 5.0 | 10.0 | 0.00 | 0.00 | 0.00 | 90 | 1015.1 |
| 20260508105505 | 72 | 350 | 5.0 | 9.0 | 0.00 | 0.00 | 0.00 | 91 | 1014.9 |
| 20260508105011 | 72 | 359 | 5.0 | 9.0 | 0.00 | 0.00 | 0.00 | 91 | 1014.6 |
| 20260508104524 | 72 | 5 | 5.0 | 7.0 | 0.00 | 0.00 | 0.00 | 91 | 1014.6 |
| 20260508104007 | 72 | 15 | 2.0 | 7.0 | 0.00 | 0.00 | 0.00 | 91 | 1014.8 |
| 20260508103502 | 73 | 347 | 3.0 | 6.0 | 0.00 | 0.00 | 0.00 | 91 | 1014.6 |
| 20260508103006 | 73 | 20 | 3.0 | 7.0 | 0.00 | 0.00 | 0.00 | 91 | 1014.4 |
| 20260508102502 | 73 | 344 | 4.0 | 7.0 | 0.00 | 0.00 | 0.00 | 91 | 1014.5 |
| 20260508102003 | 73 | 360 | 4.0 | 6.0 | 0.00 | 0.00 | 0.00 | 91 | 1014.3 |
| 20260508101502 | 73 | 354 | 4.0 | 5.0 | 0.00 | 0.00 | 0.00 | 91 | 1014.2 |
| 20260508101002 | 73 | 13 | 3.0 | 6.0 | 0.00 | 0.00 | 0.00 | 91 | 1014.1 |
| 20260508100503 | 73 | 355 | 3.0 | 6.0 | 0.00 | 0.00 | 0.00 | 91 | 1014.2 |
| 20260508100003 | 73 | 352 | 5.0 | 7.0 | 0.00 | 0.00 | 0.00 | 91 | 1014.2 |
| 20260508095503 | 73 | 352 | 3.0 | 6.0 | 0.00 | 0.00 | 0.00 | 91 | 1014.1 |
| 20260508095003 | 73 | 307 | 3.0 | 5.0 | 0.00 | 0.00 | 0.00 | 91 | 1014.2 |
| 20260508094503 | 73 | 359 | 3.0 | 6.0 | 0.00 | 0.00 | 0.00 | 91 | 1013.9 |
| 20260508094003 | 74 | 1 | 3.0 | 6.0 | 0.00 | 0.00 | 0.00 | 91 | 1014.0 |
| 20260508093504 | 74 | 359 | 4.0 | 6.0 | 0.00 | 0.00 | 0.00 | 91 | 1014.1 |
| 20260508093009 | 74 | 352 | 2.0 | 7.0 | 0.00 | 0.00 | 0.00 | 91 | 1014.2 |
| 20260508092503 | 74 | 334 | 4.0 | 7.0 | 0.00 | 0.00 | 0.00 | 90 | 1014.2 |
| 20260508092003 | 74 | 328 | 4.0 | 7.0 | 0.00 | 0.00 | 0.00 | 90 | 1014.1 |
| 20260508091507 | 74 | 337 | 4.0 | 7.0 | 0.00 | 0.00 | 0.00 | 90 | 1014.1 |
| 20260508091005 | 74 | 324 | 4.0 | 6.0 | 0.00 | 0.00 | 0.00 | 90 | 1014.0 |
| 20260508090504 | 74 | 349 | 4.0 | 6.0 | 0.00 | 0.00 | 0.00 | 90 | 1013.9 |
| 20260508090003 | 74 | 320 | 3.0 | 5.0 | 0.00 | 0.00 | 0.00 | 90 | 1013.9 |
| 20260508085502 | 74 | 288 | 3.0 | 5.0 | 0.00 | 0.00 | 0.00 | 90 | 1013.9 |
| 20260508084504 | 74 | 328 | 4.0 | 6.0 | 0.00 | 0.00 | 0.00 | 90 | 1014.0 |
| 20260508084007 | 74 | 311 | 3.0 | 5.0 | 0.00 | 0.00 | 0.00 | 90 | 1013.9 |
| 20260508083507 | 74 | 314 | 4.0 | 5.0 | 0.00 | 0.00 | 0.00 | 90 | 1013.9 |
| 20260508083007 | 74 | 323 | 2.0 | 6.0 | 0.00 | 0.00 | 0.00 | 90 | 1013.8 |
| 20260508082503 | 74 | 328 | 2.0 | 6.0 | 0.00 | 0.00 | 0.00 | 90 | 1013.9 |
| 20260508082003 | 75 | 296 | 2.0 | 5.0 | 0.00 | 0.00 | 0.00 | 90 | 1013.8 |
| 20260508081505 | 74 | 301 | 2.0 | 5.0 | 0.00 | 0.00 | 0.00 | 90 | 1013.8 |
| 20260508081004 | 75 | 295 | 3.0 | 5.0 | 0.00 | 0.00 | 0.00 | 90 | 1014.0 |
| 20260508080507 | 75 | 302 | 1.0 | 3.0 | 0.00 | 0.00 | 0.00 | 90 | 1013.8 |
| 20260508080004 | 75 | 288 | 2.0 | 5.0 | 0.00 | 0.00 | 0.00 | 90 | 1013.9 |
| 20260508075504 | 75 | 292 | 2.0 | 5.0 | 0.00 | 0.00 | 0.00 | 90 | 1013.8 |
| 20260508074503 | 75 | 264 | 1.0 | 5.0 | 0.00 | 0.00 | 0.00 | 90 | 1013.7 |
| 20260508074003 | 75 | 246 | 2.0 | 6.0 | 0.00 | 0.00 | 0.00 | 90 | 1013.8 |
| 20260508073504 | 75 | 254 | 2.0 | 6.0 | 0.00 | 0.00 | 0.00 | 89 | 1013.9 |
| 20260508072504 | 75 | 279 | 2.0 | 6.0 | 0.00 | 0.00 | 0.00 | 90 | 1014.0 |
| 20260508072004 | 75 | 297 | 3.0 | 6.0 | 0.00 | 0.00 | 0.00 | 90 | 1014.0 |
| 20260508071504 | 75 | 297 | 3.0 | 7.0 | 0.00 | 0.00 | 0.00 | 90 | 1014.1 |
| 20260508071001 | 75 | 328 | 4.0 | 7.0 | 0.00 | 0.00 | 0.00 | 90 | 1014.2 |
| 20260508070508 | 75 | 318 | 3.0 | 6.0 | 0.00 | 0.00 | 0.00 | 90 | 1014.1 |
| 20260508070005 | 75 | 279 | 2.0 | 6.0 | 0.00 | 0.00 | 0.00 | 90 | 1014.2 |
| 20260508065504 | 75 | 278 | 2.0 | 6.0 | 0.00 | 0.00 | 0.00 | 90 | 1014.3 |
| 20260508065008 | 75 | 319 | 2.0 | 6.0 | 0.00 | 0.00 | 0.00 | 89 | 1014.3 |
| 20260508064509 | 75 | 284 | 3.0 | 6.0 | 0.00 | 0.00 | 0.00 | 89 | 1014.3 |
| 20260508064005 | 75 | 293 | 4.0 | 5.0 | 0.00 | 0.00 | 0.00 | 89 | 1014.3 |
| 20260508062503 | 75 | 268 | 3.0 | 6.0 | 0.00 | 0.00 | 0.00 | 89 | 1014.5 |
| 20260508061010 | 75 | 262 | 1.0 | 4.0 | 0.00 | 0.00 | 0.00 | 88 | 1014.6 |
| 20260508060503 | 75 | 220 | 1.0 | 4.0 | 0.00 | 0.00 | 0.00 | 88 | 1014.6 |
| 20260508060012 | 75 | 261 | 2.0 | 4.0 | 0.00 | 0.00 | 0.00 | 88 | 1014.6 |
| 20260508055504 | 75 | 243 | 2.0 | 4.0 | 0.00 | 0.00 | 0.00 | 88 | 1014.6 |
| 20260508055005 | 75 | 221 | 2.0 | 4.0 | 0.00 | 0.00 | 0.00 | 88 | 1014.6 |
| 20260508054509 | 75 | 231 | 3.0 | 4.0 | 0.00 | 0.00 | 0.00 | 88 | 1014.6 |
| 20260508054006 | 75 | 227 | 2.0 | 5.0 | 0.00 | 0.00 | 0.00 | 87 | 1014.5 |
| 20260508053503 | 75 | 233 | 2.0 | 5.0 | 0.00 | 0.00 | 0.00 | 87 | 1014.6 |
| 20260508053011 | 75 | 233 | 2.0 | 4.0 | 0.00 | 0.00 | 0.00 | 87 | 1014.7 |
| 20260508052506 | 75 | 239 | 1.0 | 3.0 | 0.00 | 0.00 | 0.00 | 87 | 1014.7 |
| 20260508052004 | 75 | 222 | 1.0 | 4.0 | 0.00 | 0.00 | 0.00 | 87 | 1014.7 |
| 20260508051007 | 75 | 296 | 2.0 | 5.0 | 0.00 | 0.00 | 0.00 | 87 | 1014.8 |
| 20260508050506 | 75 | 238 | 2.0 | 5.0 | 0.00 | 0.00 | 0.00 | 87 | 1014.7 |
| 20260508050009 | 75 | 248 | 1.0 | 4.0 | 0.00 | 0.00 | 0.00 | 87 | 1014.7 |
| 20260508045505 | 75 | 238 | 2.0 | 4.0 | 0.00 | 0.00 | 0.00 | 87 | 1014.7 |
| 20260508045004 | 75 | 240 | 1.0 | 3.0 | 0.00 | 0.00 | 0.00 | 87 | 1014.6 |
| 20260508044511 | 75 | 219 | 2.0 | 4.0 | 0.00 | 0.00 | 0.00 | 87 | 1014.5 |
| 20260508044008 | 75 | 230 | 2.0 | 4.0 | 0.00 | 0.00 | 0.00 | 87 | 1014.5 |
| 20260508043504 | 75 | 222 | 1.0 | 4.0 | 0.00 | 0.00 | 0.00 | 86 | 1014.6 |
| 20260508043012 | 75 | 217 | 2.0 | 4.0 | 0.00 | 0.00 | 0.00 | 86 | 1014.5 |
| 20260508042505 | 75 | 253 | 1.0 | 4.0 | 0.00 | 0.00 | 0.00 | 86 | 1014.4 |
| 20260508042006 | 75 | 205 | 2.0 | 4.0 | 0.00 | 0.00 | 0.00 | 86 | 1014.5 |
| 20260508041514 | 75 | 203 | 2.0 | 4.0 | 0.00 | 0.00 | 0.00 | 86 | 1014.5 |
| 20260508041004 | 75 | 227 | 2.0 | 5.0 | 0.00 | 0.00 | 0.00 | 86 | 1014.5 |
| 20260508040008 | 75 | 255 | 2.0 | 6.0 | 0.00 | 0.00 | 0.00 | 87 | 1014.5 |
| 20260508034515 | 75 | 238 | 4.0 | 7.0 | 0.00 | 0.00 | 0.00 | 87 | 1014.5 |
| 20260508034004 | 75 | 247 | 2.0 | 5.0 | 0.00 | 0.00 | 0.00 | 87 | 1014.7 |
| 20260508033504 | 75 | 198 | 1.0 | 3.0 | 0.00 | 0.00 | 0.00 | 88 | 1014.7 |
| 20260508033016 | 75 | 242 | 1.0 | 3.0 | 0.00 | 0.00 | 0.00 | 88 | 1014.7 |
| 20260508032508 | 75 | 276 | 1.0 | 4.0 | 0.00 | 0.00 | 0.00 | 88 | 1014.7 |
| 20260508032007 | 75 | 306 | 2.0 | 4.0 | 0.00 | 0.00 | 0.00 | 88 | 1014.7 |
| 20260508031518 | 75 | 301 | 1.0 | 2.0 | 0.00 | 0.00 | 0.00 | 88 | 1014.7 |
| 20260508031004 | 75 | 259 | 1.0 | 2.0 | 0.00 | 0.00 | 0.00 | 88 | 1014.5 |
| 20260508030504 | 75 | 237 | 1.0 | 3.0 | 0.00 | 0.00 | 0.00 | 88 | 1014.4 |
| 20260508030007 | 75 | 261 | 1.0 | 3.0 | 0.00 | 0.00 | 0.00 | 87 | 1014.4 |
| 20260508025504 | 75 | 236 | 0.0 | 2.0 | 0.00 | 0.00 | 0.00 | 87 | 1014.3 |
| 20260508025002 | 75 | 281 | 0.0 | 2.0 | 0.00 | 0.00 | 0.00 | 87 | 1014.4 |
| 20260508024521 | 75 | 290 | 1.0 | 2.0 | 0.00 | 0.00 | 0.00 | 87 | 1014.4 |
| 20260508024003 | 75 | 241 | 0.0 | 2.0 | 0.00 | 0.00 | 0.00 | 87 | 1014.2 |
| 20260508023502 | 75 | 214 | 1.0 | 2.0 | 0.00 | 0.00 | 0.00 | 86 | 1014.0 |
| 20260508023003 | 75 | 209 | 1.0 | 2.0 | 0.00 | 0.00 | 0.00 | 86 | 1013.9 |
| 20260508022503 | 76 | 229 | 1.0 | 2.0 | 0.00 | 0.00 | 0.00 | 85 | 1013.9 |
| 20260508022003 | 76 | 250 | 0.0 | 2.0 | 0.00 | 0.00 | 0.00 | 85 | 1013.8 |
| 20260508021507 | 76 | 237 | 1.0 | 3.0 | 0.00 | 0.00 | 0.00 | 85 | 1013.8 |
| 20260508021007 | 76 | 286 | 0.0 | 4.0 | 0.00 | 0.00 | 0.00 | 85 | 1013.8 |
| 20260508020504 | 76 | 305 | 2.0 | 4.0 | 0.00 | 0.00 | 0.00 | 85 | 1013.8 |
| 20260508020006 | 76 | 310 | 2.0 | 4.0 | 0.00 | 0.00 | 0.00 | 85 | 1013.9 |
| 20260508015506 | 76 | 311 | 2.0 | 4.0 | 0.00 | 0.00 | 0.00 | 85 | 1013.8 |
| 20260508015003 | 76 | 326 | 1.0 | 2.0 | 0.00 | 0.00 | 0.00 | 84 | 1013.8 |
| 20260508013504 | 77 | 250 | 0.0 | 3.0 | 0.00 | 0.00 | 0.00 | 83 | 1013.7 |
| 20260508013003 | 77 | 273 | 1.0 | 3.0 | 0.00 | 0.00 | 0.00 | 83 | 1013.7 |
| 20260508012502 | 77 | 300 | 1.0 | 3.0 | 0.00 | 0.00 | 0.00 | 83 | 1013.8 |
| 20260508012002 | 77 | 313 | 1.0 | 3.0 | 0.00 | 0.00 | 0.00 | 82 | 1013.7 |
| 20260508011505 | 77 | 302 | 1.0 | 3.0 | 0.00 | 0.00 | 0.00 | 82 | 1013.5 |
| 20260508011003 | 77 | 299 | 1.0 | 3.0 | 0.00 | 0.00 | 0.00 | 82 | 1013.6 |
| 20260508010503 | 77 | 307 | 1.0 | 3.0 | 0.00 | 0.00 | 0.00 | 82 | 1013.4 |
| 20260508010010 | 77 | 287 | 2.0 | 3.0 | 0.00 | 0.00 | 0.00 | 81 | 1013.5 |
| 20260508005503 | 78 | 304 | 2.0 | 3.0 | 0.00 | 0.00 | 0.00 | 81 | 1013.5 |
| 20260508005004 | 78 | 295 | 2.0 | 3.0 | 0.00 | 0.00 | 0.00 | 81 | 1013.4 |
| 20260508004531 | 78 | 310 | 1.0 | 4.0 | 0.00 | 0.00 | 0.00 | 81 | 1013.4 |
| 20260508004007 | 78 | 321 | 2.0 | 4.0 | 0.00 | 0.00 | 0.00 | 80 | 1013.2 |
| 20260508003504 | 78 | 342 | 1.0 | 4.0 | 0.00 | 0.00 | 0.00 | 80 | 1013.3 |
| 20260508003009 | 78 | 319 | 3.0 | 5.0 | 0.00 | 0.00 | 0.00 | 79 | 1013.3 |
| 20260508002006 | 79 | 338 | 2.0 | 4.0 | 0.00 | 0.00 | 0.00 | 78 | 1013.1 |
| 20260508001512 | 79 | 335 | 2.0 | 5.0 | 0.00 | 0.00 | 0.00 | 78 | 1013.1 |
| 20260508001002 | 79 | 321 | 3.0 | 5.0 | 0.00 | 0.00 | 0.00 | 77 | 1013.2 |
| 20260508000502 | 80 | 314 | 2.0 | 6.0 | 0.00 | 0.00 | 0.00 | 77 | 1013.3 |
| 20260508000003 | 80 | 313 | 3.0 | 6.0 | 0.00 | 0.00 | 0.00 | 76 | 1013.2 |
| 20260507235504 | 80 | 309 | 3.0 | 5.0 | 0.00 | 0.00 | 0.00 | 76 | 1013.1 |
| 20260507233508 | 81 | 288 | 4.0 | 6.0 | 0.00 | 0.00 | 0.00 | 74 | 1013.2 |
| 20260507232508 | 81 | 321 | 3.0 | 6.0 | 0.00 | 0.00 | 0.00 | 73 | 1013.1 |
| 20260507231516 | 81 | 296 | 4.0 | 7.0 | 0.00 | 0.00 | 0.00 | 72 | 1013.1 |
| 20260507230504 | 82 | 316 | 2.0 | 6.0 | 0.00 | 0.00 | 0.00 | 71 | 1013.1 |
| 20260507223505 | 83 | 292 | 6.0 | 8.0 | 0.00 | 0.00 | 0.00 | 68 | 1012.7 |
| 20260507222506 | 82 | 269 | 4.0 | 10.0 | 0.00 | 0.00 | 0.00 | 68 | 1012.5 |
| 20260507222006 | 82 | 312 | 2.0 | 8.0 | 0.00 | 0.00 | 0.00 | 69 | 1012.5 |
| 20260507221518 | 83 | 174 | 3.0 | 7.0 | 0.00 | 0.00 | 0.00 | 68 | 1012.4 |
| 20260507221008 | 83 | 313 | 3.0 | 11.0 | 0.00 | 0.00 | 0.00 | 68 | 1012.4 |
| 20260507220016 | 82 | 238 | 4.0 | 10.0 | 0.00 | 0.00 | 0.00 | 69 | 1012.5 |
| 20260507215507 | 82 | 243 | 4.0 | 10.0 | 0.00 | 0.00 | 0.00 | 69 | 1012.5 |
| 20260507214505 | 81 | 269 | 7.0 | 12.0 | 0.00 | 0.00 | 0.00 | 69 | 1012.6 |
| 20260507214004 | 81 | 256 | 5.0 | 9.0 | 0.00 | 0.00 | 0.00 | 70 | 1012.5 |
| 20260507213507 | 81 | 287 | 4.0 | 9.0 | 0.00 | 0.00 | 0.00 | 72 | 1012.4 |
| 20260507213009 | 80 | 295 | 4.0 | 10.0 | 0.00 | 0.00 | 0.00 | 72 | 1012.5 |
| 20260507212506 | 80 | 270 | 5.0 | 12.0 | 0.00 | 0.00 | 0.00 | 72 | 1012.5 |
| 20260507212007 | 80 | 230 | 4.0 | 12.0 | 0.00 | 0.00 | 0.00 | 72 | 1012.3 |
| 20260507211513 | 79 | 223 | 6.0 | 11.0 | 0.00 | 0.00 | 0.00 | 72 | 1012.5 |
| 20260507211007 | 79 | 221 | 5.0 | 8.0 | 0.00 | 0.00 | 0.00 | 72 | 1012.2 |
| 20260507210506 | 79 | 224 | 5.0 | 8.0 | 0.00 | 0.00 | 0.00 | 72 | 1012.0 |
| 20260507210017 | 79 | 222 | 4.0 | 8.0 | 0.00 | 0.00 | 0.00 | 72 | 1012.2 |
| 20260507205010 | 79 | 205 | 8.0 | 12.0 | 0.00 | 0.00 | 0.00 | 72 | 1012.4 |
| 20260507203504 | 79 | 236 | 9.0 | 15.0 | 0.00 | 0.00 | 0.00 | 72 | 1012.8 |
| 20260507203010 | 79 | 213 | 7.0 | 15.0 | 0.00 | 0.00 | 0.00 | 71 | 1013.0 |
| 20260507202503 | 79 | 220 | 10.0 | 14.0 | 0.00 | 0.00 | 0.00 | 71 | 1012.7 |
| 20260507202005 | 79 | 198 | 6.0 | 16.0 | 0.00 | 0.00 | 0.00 | 71 | 1013.0 |
| 20260507201517 | 79 | 200 | 10.0 | 16.0 | 0.00 | 0.00 | 0.00 | 70 | 1013.2 |
| 20260507201009 | 79 | 202 | 10.0 | 16.0 | 0.00 | 0.00 | 0.00 | 68 | 1013.2 |
| 20260507200508 | 80 | 225 | 7.0 | 13.0 | 0.00 | 0.00 | 0.00 | 68 | 1013.6 |
| 20260507200017 | 80 | 220 | 7.0 | 12.0 | 0.00 | 0.00 | 0.00 | 66 | 1013.8 |
| 20260507195508 | 81 | 188 | 6.0 | 12.0 | 0.00 | 0.00 | 0.00 | 66 | 1013.8 |
| 20260507195010 | 81 | 238 | 8.0 | 13.0 | 0.00 | 0.00 | 0.00 | 64 | 1013.8 |
| 20260507194526 | 81 | 216 | 7.0 | 13.0 | 0.00 | 0.00 | 0.00 | 65 | 1014.0 |
| 20260507194012 | 81 | 199 | 6.0 | 16.0 | 0.00 | 0.00 | 0.00 | 65 | 1014.1 |
| 20260507192503 | 81 | 274 | 7.0 | 12.0 | 0.00 | 0.00 | 0.00 | 65 | 1014.3 |
| 20260507192006 | 81 | 233 | 7.0 | 16.0 | 0.00 | 0.00 | 0.00 | 66 | 1014.2 |
| 20260507191515 | 81 | 232 | 9.0 | 16.0 | 0.00 | 0.00 | 0.00 | 65 | 1014.2 |
| 20260507191010 | 81 | 226 | 8.0 | 15.0 | 0.00 | 0.00 | 0.00 | 65 | 1014.1 |
| 20260507190507 | 81 | 214 | 7.0 | 21.0 | 0.00 | 0.00 | 0.00 | 66 | 1014.1 |
| 20260507190014 | 81 | 211 | 14.0 | 21.0 | 0.00 | 0.00 | 0.00 | 66 | 1014.2 |
| 20260507185509 | 81 | 226 | 10.0 | 19.0 | 0.00 | 0.00 | 0.00 | 65 | 1014.2 |
| 20260507185007 | 81 | 195 | 10.0 | 19.0 | 0.00 | 0.00 | 0.00 | 66 | 1014.2 |
| 20260507184523 | 81 | 192 | 8.0 | 18.0 | 0.00 | 0.00 | 0.00 | 66 | 1014.2 |
| 20260507184006 | 81 | 203 | 8.0 | 20.0 | 0.00 | 0.00 | 0.00 | 67 | 1014.5 |
| 20260507183510 | 81 | 221 | 10.0 | 20.0 | 0.00 | 0.00 | 0.00 | 67 | 1014.9 |
| 20260507183024 | 81 | 202 | 10.0 | 18.0 | 0.00 | 0.00 | 0.00 | 67 | 1015.0 |
| 20260507182504 | 81 | 302 | 8.0 | 15.0 | 0.00 | 0.00 | 0.00 | 67 | 1015.2 |
| 20260507182004 | 81 | 226 | 7.0 | 16.0 | 0.00 | 0.00 | 0.00 | 68 | 1015.3 |
| 20260507181512 | 80 | 249 | 8.0 | 20.0 | 0.00 | 0.00 | 0.00 | 68 | 1015.5 |
| 20260507181004 | 80 | 200 | 11.0 | 20.0 | 0.00 | 0.00 | 0.00 | 68 | 1015.8 |
| 20260507180507 | 80 | 191 | 10.0 | 21.0 | 0.00 | 0.00 | 0.00 | 69 | 1016.0 |
| 20260507180010 | 80 | 259 | 12.0 | 21.0 | 0.00 | 0.00 | 0.00 | 70 | 1015.8 |